• Join FlightAware (Why Join?)
  • Login
  • US Flag GB Flag 
09:25 EDT


 

Airport Tracker/Info


-or-


 

Live Flight TrackerFlight Track Log ✈ UAL4695 ✈ 23-Apr-2013 ✈ KRIC - KEWR

Flight Track Log - Related Links

Times and Time Zones

All times are in EDT time to prevent confusion due to time zone crossing. See the UAL4695 flight status page for this flight to view local times or setup timezone preferences in your user account.

Time Position Orientation Groundspeed Altitude Reporting Facility
EDT Latitude Longitude Course Direction KTS MPH feet Rate Location/Type
19:30 37.5667 -77.2833 38° Northeast 236 272 4,400  Level Potomac TRACON
19:30 37.5797 -77.2664 46° Northeast 249 287 5,200 3,180 Climbing Washington Center
19:31 37.6122 -77.1806 64° Northeast 272 313 8,400 1,860 Climbing Washington Center
19:32 37.7257 -77.0743 38° Northeast  Level FlightAware Approximate
19:32 37.6528 -77.1053 56° Northeast 266 306 9,000  Level Washington Center
19:33 37.7839 -77.0161 38° Northeast  Level FlightAware Approximate
19:33 37.7161 -77.0489 35° Northeast 294 338 9,000  Level Washington Center
19:34 37.8422 -76.9579 38° Northeast  Level FlightAware Approximate
19:34 37.7792 -76.9947 34° Northeast 288 331 10,900  Level Washington Center
19:35 37.9004 -76.8997 38° Northeast  Level FlightAware Approximate
19:35 37.8614 -76.9306 32° Northeast 309 356 11,000  Level Washington Center
19:36 37.9475 -76.8636 32° Northeast 340 391 12,600 2,040 Climbing Washington Center
19:37 38.0236 -76.7700 44° Northeast 360 414 15,100 2,100 Climbing Washington Center
19:38 38.0933 -76.6683 49° Northeast 366 421 16,900 900 Climbing Washington Center
19:39 38.1672 -76.5636 48° Northeast 384 442 17,000  Climbing Washington Center
19:40 38.2431 -76.4614 47° Northeast 390 449 17,000  Level Washington Center
19:41 38.3353 -76.3939 30° Northeast 380 437 17,000  Level Washington Center
19:42 38.4397 -76.3736 North 363 418 17,000  Level Washington Center
19:43 38.5461 -76.3536 North 368 423 17,000  Level Washington Center
19:44 38.6506 -76.3333 North 378 435 17,000  Level Washington Center
19:45 38.7569 -76.3131 North 378 435 17,000  Level Washington Center
19:46 38.8528 -76.3353 350° North 352 405 17,000  Level Washington Center
19:47 38.9419 -76.3764 340° North 340 391 17,000  Level Washington Center
19:48 39.0314 -76.4147 342° North 335 386 17,000  Level Washington Center
19:49 39.1208 -76.4558 340° North 340 391 17,000  Level Washington Center
19:50 39.2106 -76.4489 North 321 369 17,000  Level Washington Center
19:51 39.2258 -76.3178 81° East 266 306 17,000  Level Washington Center
19:52 39.2244 -76.1811 91° East 303 349 17,000 -60 Level Washington Center
19:53 39.2542 -76.0633 72° East 341 392 16,900 -60 Descending Washington Center
19:54 39.2881 -75.9375 71° East 354 407 16,900  Level Washington Center
19:55 39.3194 -75.8117 72° East 366 421 16,900  Level Washington Center
19:56 39.3864 -75.7231 46° Northeast 350 403 16,900  Level Washington Center
19:57 39.4719 -75.6533 32° Northeast 338 389 16,900  Level Washington Center
19:58 39.5572 -75.5889 30° Northeast 344 396 16,900  Level Washington Center
19:59 39.6406 -75.5242 31° Northeast 344 396 16,900  Level Washington Center
20:00 39.7219 -75.4594 31° Northeast 344 396 16,900 -300 Level Washington Center
20:01 39.7947 -75.3972 33° Northeast 330 380 16,400 -900 Descending Washington Center
20:02 39.8653 -75.3428 31° Northeast 311 358 15,100 -1,200 Descending Washington Center
20:03 39.9381 -75.2831 32° Northeast 306 352 14,100 -1,020 Descending Washington Center
20:04 40.0047 -75.2150 38° Northeast 300 345 13,100 -1,140 Descending Washington Center
20:05 40.0628 -75.1414 44° Northeast 295 339 11,900 -1,140 Descending Washington Center
20:06 40.1289 -75.0622 42° Northeast 290 334 10,900 -900 Descending Washington Center
20:07 40.1767 -74.9806 53° Northeast 285 328 10,100 -1,080 Descending Washington Center
20:08 40.2000 -74.9000 69° East 285 328 8,900 -1,140 Descending New York TRACON
20:09 40.2667 -74.8667 21° North 263 303 8,000 -780 Descending New York TRACON
20:10 40.3167 -74.8000 45° Northeast 275 316 7,400 -840 Descending New York TRACON
20:11 40.3500 -74.7167 62° Northeast 269 310 6,400 -1,020 Descending New York TRACON
20:12 40.3833 -74.6333 62° Northeast 254 292 5,400 -1,020 Descending New York TRACON
20:13 40.4167 -74.5667 57° Northeast 222 255 4,400 -1,020 Descending New York TRACON
20:14 40.4500 -74.4833 62° Northeast 208 239 3,400 -720 Descending New York TRACON
20:15 40.4500 -74.4167 90° East 182 209 3,000 -240 Descending New York TRACON
20:16 40.4833 -74.3667 49° Northeast 176 203 3,000  Level New York TRACON
20:17 40.5000 -74.3000 72° East 178 205 3,000  Level New York TRACON
20:18 40.5333 -74.2667 37° Northeast 185 213 3,000  Level New York TRACON